Location: Hopewell Observatory
(38.8698°N, 77.6988°W)
Time: 13:20:59
(UTC-04:00)

Amateur Radio Satellites - All Passes

Search period start: 23 August 2014 12:50
Search period end: 24 August 2014 12:50
Location: Hopewell Observatory, 38.8698°N, 77.6988°W

Satellite Date Start Highest point End Downlink Frequencies (MHz)
Time Altitude Azimuth
JAS-1B 23 Aug 12:55:25 13:02:11 22° 57° (ENE) 13:08:36 435.800 - 435.900 CW/SSB
Uribyol 2 23 Aug 13:02:49 13:04:49 12° 60° (ENE) 13:06:49 436.500 FM
ISS 23 Aug 13:03:00 13:05:43 24° 132° (SE) 13:08:27 145.800 FM
Oscar 16 23 Aug 13:07:32 13:11:58 30° 68° (ENE) 13:16:25 437.025 USB, Beacon 2401.1428
AO-27 23 Aug 13:16:14 13:19:21 16° 62° (ENE) 13:22:28 436.795 MHz FM
RS-15 23 Aug 13:31:50 13:38:48 18° 346° (NNW) 13:45:49 29.354 - 29.394 USB, Beacon 29.352 USB
TMSAT-1 23 Aug 13:56:13 13:58:07 12° 60° (ENE) 14:00:01 436.925 FM
AO-Echo 23 Aug 14:05:32 14:10:30 49° 72° (ENE) 14:15:20 ?
SO-50 23 Aug 14:09:50 14:13:49 26° 48° (NE) 14:17:50 436.795 FM
Oscar 19 23 Aug 14:12:30 14:17:36 68° 258° (WSW) 14:22:46 437.125 CW, 437.150 USB
MaSat-1 23 Aug 14:19:39 14:22:30 16° 100° (E) 14:25:29 437.345 MHz
ITAMSAT 1 23 Aug 14:26:18 14:31:27 73° 74° (ENE) 14:36:38 435.822 SSB
Gurwin Techsat 1B 23 Aug 14:35:34 14:40:26 39° 70° (ENE) 14:45:20 435.225 FM
Uribyol 2 23 Aug 14:38:24 14:43:34 82° 257° (WSW) 14:48:45 436.500 FM
ISS 23 Aug 14:39:14 14:42:19 35° 328° (NNW) 14:45:25 145.800 FM
JAS-1B 23 Aug 14:41:31 14:51:28 84° 74° (ENE) 15:00:52 435.800 - 435.900 CW/SSB
Oscar 16 23 Aug 14:46:44 14:51:13 31° 264° (W) 14:55:46 437.025 USB, Beacon 2401.1428
AO-27 23 Aug 14:53:12 14:58:20 62° 259° (WSW) 15:03:29 436.795 MHz FM
AO-7 23 Aug 15:14:23 15:21:12 29° 58° (ENE) 15:28:00 29.400 - 29.500 MHz
UOSAT-12 23 Aug 15:16:11 15:17:53 12° 38° (NE) 15:19:35 437.025 FM, 437.400 FM
TMSAT-1 23 Aug 15:31:58 15:37:15 87° 256° (WSW) 15:42:35 436.925 FM
PANSAT 23 Aug 15:43:24 15:44:16 11° 164° (SSE) 15:45:07 not established
AO-Echo 23 Aug 15:45:58 15:49:28 18° 267° (W) 15:52:55 ?
RS-15 23 Aug 15:49:16 15:57:08 21° 23° (NNE) 16:05:07 29.354 - 29.394 USB, Beacon 29.352 USB
SO-50 23 Aug 15:50:01 15:54:30 40° 245° (WSW) 15:59:01 436.795 FM
MaSat-1 23 Aug 15:54:20 15:58:59 56° 298° (WNW) 16:04:03 437.345 MHz
ITAMSAT 1 23 Aug 16:09:26 16:11:27 12° 270° (W) 16:13:28 435.822 SSB
Gurwin Techsat 1B 23 Aug 16:16:11 16:20:29 25° 265° (W) 16:24:48 435.225 FM
ISS 23 Aug 16:18:41 16:19:50 11° 348° (NNW) 16:20:58 145.800 FM
Uosat F 23 Aug 16:27:16 16:32:14 65° 74° (ENE) 16:37:12 435.120 FM
JAS-1B 23 Aug 16:35:12 16:42:34 24° 270° (W) 16:49:47 435.800 - 435.900 CW/SSB
UOSAT-12 23 Aug 16:54:08 16:58:53 74° 58° (ENE) 17:03:31 437.025 FM, 437.400 FM
AO-7 23 Aug 17:05:07 17:13:23 64° 256° (WSW) 17:21:40 29.400 - 29.500 MHz
JAS-2 23 Aug 17:05:58 17:10:20 20° 64° (ENE) 17:14:24 435.800 - 435.900 CW/SSB, 435.910 FM
PANSAT 23 Aug 17:21:12 17:23:45 17° 177° (S) 17:26:18 not established
OPAL 23 Aug 17:21:41 17:26:46 50° 102° (ESE) 17:31:49 ?
ISS 23 Aug 17:57:25 17:57:48 10° 8° (N) 17:58:12 145.800 FM
Hamsat 23 Aug 18:01:00 18:05:06 48° 74° (ENE) 18:09:16 145.90 MHz
RS-15 23 Aug 18:01:36 18:12:31 59° 52° (NE) 18:23:49 29.354 - 29.394 USB, Beacon 29.352 USB
Uosat F 23 Aug 18:09:05 18:11:26 13° 269° (W) 18:13:47 435.120 FM
Sapphire 23 Aug 18:26:40 18:31:28 34° 109° (ESE) 18:36:17 437.095 MHz 1200 baud AX-25 AFSK
UOSAT-12 23 Aug 18:36:52 18:38:22 11° 254° (WSW) 18:39:51 437.025 FM, 437.400 FM
JAS-2 23 Aug 18:48:19 18:55:01 65° 258° (WSW) 19:00:56 435.800 - 435.900 CW/SSB, 435.910 FM
STRAND 1 23 Aug 18:53:42 18:56:55 17° 92° (E) 19:00:06 ?
PCSat 23 Aug 18:56:19 19:01:40 68° 115° (ESE) 19:07:04 145.825 MHz
PANSAT 23 Aug 19:01:07 19:03:17 15° 190° (S) 19:05:27 not established
OPAL 23 Aug 19:01:30 19:05:15 20° 298° (WNW) 19:08:59 ?
ISS 23 Aug 19:32:36 19:35:28 26° 28° (NNE) 19:38:19 145.800 FM
SO-67 23 Aug 19:36:58 19:40:26 87° 258° (WSW) 19:43:55 435.3500 MHz FM
Hamsat 23 Aug 19:39:17 19:41:20 13° 269° (W) 19:43:24 145.90 MHz
HO-68 23 Aug 19:46:26 19:51:07 19° 57° (ENE) 19:55:47 435.675 MHz FM
Sapphire 23 Aug 20:10:00 20:14:50 33° 307° (NW) 20:19:43 437.095 MHz 1200 baud AX-25 AFSK
RS-15 23 Aug 20:14:29 20:24:25 40° 252° (WSW) 20:34:45 29.354 - 29.394 USB, Beacon 29.352 USB
STRAND 1 23 Aug 20:31:27 20:36:24 53° 288° (WNW) 20:41:20 ?
PCSat 23 Aug 20:41:50 20:45:36 19° 313° (NW) 20:49:23 145.825 MHz
UKube-1 23 Aug 20:49:06 20:52:10 19° 66° (ENE) 20:55:15 145.840 MHz, 145.915 MHz
Oscar 11 23 Aug 21:04:00 21:06:37 16° 66° (ENE) 21:09:15 145.825 FM, Beacon 2401.500 USB
AO-40 23 Aug 21:08:44 03:02:03 42° 183° (S) 08:55:00 Beacon 2401.320
ISS 23 Aug 21:09:08 21:12:15 37° 225° (SW) 21:15:22 145.800 FM
Oscar 10/S400 23 Aug 21:15:07 21:35:58 63° 166° (SSE) 06:11:19 145.825 - 145.975 CW/USB, Beacon 145.810 USB
HO-68 23 Aug 21:30:48 21:37:57 83° 255° (WSW) 21:45:08 435.675 MHz FM
UKube-1 23 Aug 22:24:06 22:28:06 36° 262° (W) 22:32:08 145.840 MHz, 145.915 MHz
Oscar 11 23 Aug 22:38:19 22:42:26 44° 261° (W) 22:46:35 145.825 FM, Beacon 2401.500 USB
FUNcube-1 23 Aug 22:42:35 22:46:42 74° 76° (ENE) 22:50:53 145.950 - 145.970 MHz USB
HO-68 23 Aug 23:23:47 23:26:35 12° 271° (W) 23:29:23 435.675 MHz FM
Saudisat 1A 24 Aug 00:12:22 00:16:03 26° 113° (ESE) 00:19:45 436.775 MHz
MaSat-1 24 Aug 00:13:57 00:18:01 27° 54° (NE) 00:21:41 437.345 MHz
KITSAT 1 24 Aug 00:51:56 00:59:39 51° 111° (ESE) 01:07:23 435.175 FM
Oscar 16 24 Aug 01:22:45 01:24:11 11° 89° (E) 01:25:36 437.025 USB, Beacon 2401.1428
MaSat-1 24 Aug 01:51:02 01:55:05 30° 255° (WSW) 01:58:40 437.345 MHz
Saudisat 1A 24 Aug 01:51:36 01:55:31 31° 309° (NW) 01:59:28 436.775 MHz
AO-Echo 24 Aug 02:15:29 02:18:17 16° 92° (E) 02:21:05 ?
Oscar 19 24 Aug 02:25:27 02:30:29 47° 99° (E) 02:35:28 437.125 CW, 437.150 USB
JAS-1B 24 Aug 02:32:30 02:37:51 23° 89° (E) 02:42:37 435.800 - 435.900 CW/SSB
ITAMSAT 1 24 Aug 02:40:58 02:45:25 28° 96° (E) 02:49:50 435.822 SSB
KITSAT 1 24 Aug 02:47:49 02:55:14 38° 311° (NW) 03:02:40 435.175 FM
Uribyol 2 24 Aug 02:52:37 02:57:28 39° 98° (E) 03:02:18 436.500 FM
Gurwin Techsat 1B 24 Aug 02:54:04 02:57:25 17° 92° (E) 03:00:45 435.225 FM
Oscar 16 24 Aug 02:58:52 03:04:06 79° 285° (WNW) 03:09:17 437.025 USB, Beacon 2401.1428
AO-27 24 Aug 03:07:31 03:12:35 53° 100° (E) 03:17:37 436.795 MHz FM
Sapphire 24 Aug 03:15:50 03:20:09 23° 49° (NE) 03:24:25 437.095 MHz 1200 baud AX-25 AFSK
PCSat 24 Aug 03:45:39 03:50:48 42° 56° (NE) 03:55:54 145.825 MHz
TMSAT-1 24 Aug 03:49:18 03:54:19 42° 98° (E) 03:59:17 436.925 FM
AO-Echo 24 Aug 03:52:49 03:57:20 48° 288° (WNW) 04:01:50 ?
Oscar 19 24 Aug 04:05:41 04:09:27 21° 295° (WNW) 04:13:13 437.125 CW, 437.150 USB
ITAMSAT 1 24 Aug 04:20:18 04:24:52 33° 292° (WNW) 04:29:26 435.822 SSB
JAS-1B 24 Aug 04:22:01 04:29:04 53° 292° (WNW) 04:35:03 435.800 - 435.900 CW/SSB
Gurwin Techsat 1B 24 Aug 04:32:31 04:37:43 56° 287° (WNW) 04:42:53 435.225 FM
Uribyol 2 24 Aug 04:32:36 04:36:42 24° 294° (WNW) 04:40:48 436.500 FM
OPAL 24 Aug 04:35:27 04:40:27 78° 73° (ENE) 04:45:33 ?
Uosat F 24 Aug 04:37:05 04:40:54 22° 94° (E) 04:44:41 435.120 FM
AO-27 24 Aug 04:48:09 04:51:39 19° 296° (WNW) 04:55:10 436.795 MHz FM
KITSAT 1 24 Aug 04:50:52 04:53:24 12° 337° (NNW) 04:55:57 435.175 FM
Sapphire 24 Aug 04:58:36 05:03:51 52° 247° (WSW) 05:09:05 437.095 MHz 1200 baud AX-25 AFSK
AO-7 24 Aug 05:08:10 05:16:08 49° 101° (E) 05:24:02 29.400 - 29.500 MHz
PCSat 24 Aug 05:29:33 05:33:57 26° 253° (WSW) 05:38:21 145.825 MHz
TMSAT-1 24 Aug 05:29:49 05:33:57 24° 294° (WNW) 05:38:05 436.925 FM
JAS-2 24 Aug 06:00:48 06:03:17 13° 92° (E) 06:05:48 435.800 - 435.900 CW/SSB, 435.910 FM
SO-50 24 Aug 06:03:27 06:07:54 89° 301° (WNW) 06:12:29 436.795 FM
STRAND 1 24 Aug 06:08:24 06:12:18 23° 65° (ENE) 06:16:11 ?
Uosat F 24 Aug 06:15:09 06:19:48 40° 290° (WNW) 06:24:25 435.120 FM
OPAL 24 Aug 06:18:40 06:19:53 11° 269° (W) 06:21:07 ?
AO-7 24 Aug 07:01:18 07:08:40 38° 299° (WNW) 07:16:01 29.400 - 29.500 MHz
UOSAT-12 24 Aug 07:04:36 07:08:33 29° 113° (ESE) 07:12:35 437.025 FM, 437.400 FM
Hamsat 24 Aug 07:23:40 07:28:01 67° 285° (WNW) 07:32:19 145.90 MHz
JAS-2 24 Aug 07:43:43 07:48:50 63° 286° (WNW) 07:54:08 435.800 - 435.900 CW/SSB, 435.910 FM
STRAND 1 24 Aug 07:46:24 07:51:12 41° 261° (W) 07:56:02 ?
SO-50 24 Aug 07:47:09 07:49:10 13° 320° (NW) 07:51:12 436.795 FM
RS-15 24 Aug 08:24:16 08:34:17 41° 108° (ESE) 08:44:04 29.354 - 29.394 USB, Beacon 29.352 USB
SO-67 24 Aug 08:34:57 08:38:22 58° 284° (WNW) 08:41:45 435.3500 MHz FM
Saudisat 1A 24 Aug 08:40:19 08:43:22 18° 45° (NE) 08:46:24 436.775 MHz
UOSAT-12 24 Aug 08:44:30 08:48:37 31° 310° (NW) 08:52:49 437.025 FM, 437.400 FM
KITSAT 1 24 Aug 08:46:49 08:52:57 23° 39° (NE) 08:59:02 435.175 FM
HO-68 24 Aug 09:01:19 09:06:17 20° 92° (E) 09:11:13 435.675 MHz FM
UKube-1 24 Aug 10:13:22 10:17:27 39° 99° (E) 10:21:30 145.840 MHz, 145.915 MHz
Saudisat 1A 24 Aug 10:18:57 10:23:15 53° 243° (WSW) 10:27:32 436.775 MHz
Oscar 11 24 Aug 10:27:10 10:31:12 35° 98° (E) 10:35:11 145.825 FM, Beacon 2401.500 USB
FUNcube-1 24 Aug 10:33:50 10:36:41 17° 93° (E) 10:39:34 145.950 - 145.970 MHz USB
RS-15 24 Aug 10:35:23 10:46:12 57° 309° (NW) 10:56:56 29.354 - 29.394 USB, Beacon 29.352 USB
KITSAT 1 24 Aug 10:41:22 10:49:30 88° 61° (ENE) 10:57:34 435.175 FM
HO-68 24 Aug 10:47:26 10:54:33 71° 289° (WNW) 11:01:38 435.675 MHz FM
UKube-1 24 Aug 11:50:26 11:53:20 18° 294° (WNW) 11:56:13 145.840 MHz, 145.915 MHz
Oscar 11 24 Aug 12:03:59 12:07:07 20° 293° (WNW) 12:10:15 145.825 FM, Beacon 2401.500 USB
FUNcube-1 24 Aug 12:09:01 12:13:14 43° 287° (WNW) 12:17:31 145.950 - 145.970 MHz USB
ISS 24 Aug 12:15:39 12:17:19 13° 129° (SE) 12:19:00 145.800 FM
Oscar 16 24 Aug 12:37:54 12:40:56 16° 62° (ENE) 12:43:59 437.025 USB, Beacon 2401.1428
HO-68 24 Aug 12:37:59 12:41:00 13° 308° (NW) 12:44:00 435.675 MHz FM
KITSAT 1 24 Aug 12:38:56 12:43:48 18° 259° (W) 12:48:41 435.175 FM
AO-40 24 Aug 12:41:25 12:45:25 11° 214° (SW) 12:48:19 Beacon 2401.320
